This is the latest recevied weather packets stored in our database for station/object AB1AU. If no packets are shown the sender has not sent any weather packets the latest 10 day(s).
| Time | Temp. | Humidity | Pressure | Rain* | Wind** | Luminosity | Snow |
|---|---|---|---|---|---|---|---|
| 1777907398 | 12.78° C | 53% | 1006.5 hPa | 0 mm | - | 192 W/m² | - |
| 1777907095 | 12.78° C | 54% | 1006.6 hPa | 0 mm | - | 158 W/m² | - |
| 1777906793 | 12.78° C | 52% | 1006.8 hPa | 0 mm | - | 134 W/m² | - |
| 1777906490 | 12.78° C | 52% | 1006.9 hPa | 0 mm | - | 133 W/m² | - |
| 1777906186 | 12.22° C | 51% | 1007 hPa | 0 mm | - | 173 W/m² | - |
| 1777905883 | 12.78° C | 50% | 1007 hPa | 0 mm | - | 164 W/m² | - |
| 1777905579 | 12.78° C | 50% | 1007 hPa | 0 mm | - | 133 W/m² | - |
| 1777905277 | 12.22° C | 50% | 1007.1 hPa | 0 mm | - | 182 W/m² | - |
| 1777904974 | 12.22° C | 49% | 1007.3 hPa | 0 mm | - | 343 W/m² | - |
| 1777904671 | 12.22° C | 49% | 1007.5 hPa | 0 mm | - | 348 W/m² | - |
| 1777904368 | 12.22° C | 49% | 1007.2 hPa | 0 mm | - | 216 W/m² | - |
| 1777904065 | 11.67° C | 50% | 1007.4 hPa | 0 mm | - | 342 W/m² | - |
| 1777903761 | 11.67° C | 50% | 1007.6 hPa | 0 mm | - | 182 W/m² | - |
| 1777903458 | 11.11° C | 51% | 1007.8 hPa | 0 mm | - | 399 W/m² | - |
| 1777903154 | 11.11° C | 49% | 1007.8 hPa | 0 mm | - | 205 W/m² | - |
| 1777902850 | 10.56° C | 49% | 1008 hPa | 0 mm | - | 273 W/m² | - |
| 1777902549 | 10.56° C | 50% | 1008 hPa | 0 mm | - | 272 W/m² | - |
| 1777902244 | 10° C | 52% | 1008.1 hPa | 0 mm | - | 124 W/m² | - |
| 1777901944 | 10° C | 52% | 1008.3 hPa | 0 mm | - | 89 W/m² | - |
| 1777901641 | 10° C | 52% | 1008.1 hPa | 0 mm | - | 56 W/m² | - |
| 1777901338 | 10° C | 51% | 1008.1 hPa | 0 mm | - | 69 W/m² | - |
| 1777901035 | 10° C | 51% | 1008.2 hPa | 0 mm | - | 89 W/m² | - |
| 1777900733 | 10° C | 50% | 1008.4 hPa | 0 mm | - | 88 W/m² | - |
| 1777900429 | 10° C | 51% | 1008.4 hPa | 0 mm | - | 107 W/m² | - |
| 1777900127 | 10° C | 52% | 1008.5 hPa | 0 mm | - | 124 W/m² | - |
* Rain latest hour (hover to see other rain measurements)
** Current wind speed in m/s (hover to see current wind gust speed)